Time,TemperatureF,DewpointF,PressureIn,WindDirection,WindDirectionDegrees,WindSpeedMPH,WindSpeedGustMPH,Humidity,HourlyPrecipIn,Conditions,Clouds,dailyrainin,SoftwareType,DateUTC
2013-06-24 00:01:00,76.0,68.4,29.88,NW,316,1.0,9.0,77,0.00,,,0.00,WUHU216DAVISVP2,2013-06-24 04:01:00,
2013-06-24 00:06:00,75.8,68.2,29.88,East,96,1.0,9.0,77,0.00,,,0.00,WUHU216DAVISVP2,2013-06-24 04:06:00,
2013-06-24 00:11:00,75.7,68.5,29.88,NE,44,1.0,8.0,78,0.00,,,0.00,WUHU216DAVISVP2,2013-06-24 04:11:00,
2013-06-24 00:16:00,75.5,68.3,29.88,NE,51,0.0,7.0,78,0.00,,,0.00,WUHU216DAVISVP2,2013-06-24 04:16:00,
2013-06-24 00:21:00,75.3,68.0,29.88,ENE,78,1.0,6.0,78,0.00,,,0.00,WUHU216DAVISVP2,2013-06-24 04:21:00,
2013-06-24 00:26:00,75.2,68.3,29.88,NNE,27,1.0,4.0,79,0.00,,,0.00,WUHU216DAVISVP2,2013-06-24 04:26:00,
2013-06-24 00:31:00,75.0,68.2,29.88,NNE,28,2.0,4.0,79,0.00,,,0.00,WUHU216DAVISVP2,2013-06-24 04:31:00,
2013-06-24 00:36:00,74.8,68.3,29.88,NNE,26,3.0,5.0,80,0.00,,,0.00,WUHU216DAVISVP2,2013-06-24 04:36:00,
2013-06-24 00:41:00,74.7,68.2,29.88,NNE,20,3.0,5.0,80,0.00,,,0.00,WUHU216DAVISVP2,2013-06-24 04:41:00,
2013-06-24 00:46:00,74.7,68.6,29.87,NE,51,1.0,6.0,81,0.00,,,0.00,WUHU216DAVISVP2,2013-06-24 04:46:00,
2013-06-24 00:51:00,74.6,68.4,29.88,ENE,77,2.0,6.0,81,0.00,,,0.00,WUHU216DAVISVP2,2013-06-24 04:51:00,
2013-06-24 00:56:00,74.6,68.5,29.88,East,79,3.0,8.0,81,0.00,,,0.00,WUHU216DAVISVP2,2013-06-24 04:56:00,
2013-06-24 01:01:00,74.6,68.1,29.88,NNW,342,2.0,8.0,80,0.00,,,0.00,WUHU216DAVISVP2,2013-06-24 05:01:00,
2013-06-24 01:06:00,74.7,68.1,29.88,ENE,72,4.0,7.0,80,0.00,,,0.00,WUHU216DAVISVP2,2013-06-24 05:06:00,
2013-06-24 01:11:00,74.7,68.1,29.88,East,81,5.0,7.0,80,0.00,,,0.00,WUHU216DAVISVP2,2013-06-24 05:11:00,
2013-06-24 01:16:00,74.6,68.1,29.88,ENE,57,4.0,9.0,80,0.00,,,0.00,WUHU216DAVISVP2,2013-06-24 05:16:00,
2013-06-24 01:21:00,74.5,68.0,29.88,East,84,2.0,9.0,80,0.00,,,0.00,WUHU216DAVISVP2,2013-06-24 05:21:00,
2013-06-24 01:26:00,74.4,68.3,29.88,ENE,63,0.0,9.0,81,0.00,,,0.00,WUHU216DAVISVP2,2013-06-24 05:26:00,
2013-06-24 01:31:00,74.2,68.1,29.88,East,81,3.0,9.0,81,0.00,,,0.00,WUHU216DAVISVP2,2013-06-24 05:31:00,
2013-06-24 01:36:00,74.2,68.3,29.88,North,11,0.0,8.0,82,0.00,,,0.00,WUHU216DAVISVP2,2013-06-24 05:36:00,
2013-06-24 01:41:00,74.0,68.2,29.87,North,354,3.0,8.0,82,0.00,,,0.00,WUHU216DAVISVP2,2013-06-24 05:41:00,
2013-06-24 01:47:00,74.0,68.2,29.87,ENE,59,1.0,7.0,82,0.00,,,0.00,WUHU216DAVISVP2,2013-06-24 05:47:00,
2013-06-24 01:52:00,73.9,68.5,29.87,NE,42,2.0,8.0,83,0.00,,,0.00,WUHU216DAVISVP2,2013-06-24 05:52:00,
2013-06-24 01:57:00,73.9,68.5,29.87,NNE,33,4.0,8.0,83,0.00,,,0.00,WUHU216DAVISVP2,2013-06-24 05:57:00,
2013-06-24 02:02:00,73.8,68.4,29.87,East,87,3.0,8.0,83,0.00,,,0.00,WUHU216DAVISVP2,2013-06-24 06:02:00,
2013-06-24 02:07:00,73.7,68.3,29.88,NE,34,4.0,8.0,83,0.00,,,0.00,WUHU216DAVISVP2,2013-06-24 06:07:00,
2013-06-24 02:12:00,73.6,68.2,29.88,ENE,74,4.0,12.0,83,0.00,,,0.00,WUHU216DAVISVP2,2013-06-24 06:12:00,
2013-06-24 02:18:00,73.6,68.2,29.87,ENE,68,4.0,12.0,83,0.00,,,0.00,WUHU216DAVISVP2,2013-06-24 06:18:00,
2013-06-24 02:23:00,73.4,68.0,29.88,ESE,113,4.0,11.0,83,0.00,,,0.00,WUHU216DAVISVP2,2013-06-24 06:23:00,
2013-06-24 02:28:00,73.3,68.2,29.88,NNE,19,2.0,11.0,84,0.00,,,0.00,WUHU216DAVISVP2,2013-06-24 06:28:00,
2013-06-24 02:33:00,73.0,67.9,29.88,ENE,61,2.0,9.0,84,0.00,,,0.00,WUHU216DAVISVP2,2013-06-24 06:33:00,
2013-06-24 02:38:00,72.8,68.1,29.88,ESE,102,5.0,10.0,85,0.00,,,0.00,WUHU216DAVISVP2,2013-06-24 06:38:00,
2013-06-24 02:43:00,72.7,67.6,29.88,East,80,2.0,10.0,84,0.00,,,0.00,WUHU216DAVISVP2,2013-06-24 06:43:00,
2013-06-24 02:49:00,72.6,67.5,29.88,ENE,70,2.0,10.0,84,0.00,,,0.00,WUHU216DAVISVP2,2013-06-24 06:49:00,
2013-06-24 02:54:00,72.7,67.6,29.88,NNE,20,4.0,10.0,84,0.00,,,0.00,WUHU216DAVISVP2,2013-06-24 06:54:00,
2013-06-24 02:59:00,72.7,67.6,29.88,ENE,60,3.0,10.0,84,0.00,,,0.00,WUHU216DAVISVP2,2013-06-24 06:59:00,
2013-06-24 03:04:00,72.6,67.5,29.88,ENE,62,3.0,10.0,84,0.00,,,0.00,WUHU216DAVISVP2,2013-06-24 07:04:00,
2013-06-24 03:09:00,72.5,67.4,29.88,ENE,72,3.0,9.0,84,0.00,,,0.00,WUHU216DAVISVP2,2013-06-24 07:09:00,
2013-06-24 03:14:00,72.5,67.4,29.88,ESE,104,3.0,9.0,84,0.00,,,0.00,WUHU216DAVISVP2,2013-06-24 07:14:00,
2013-06-24 03:20:00,72.3,67.2,29.88,NE,34,3.0,9.0,84,0.00,,,0.00,WUHU216DAVISVP2,2013-06-24 07:20:00,
2013-06-24 03:25:00,72.3,67.2,29.88,NE,56,4.0,8.0,84,0.00,,,0.00,WUHU216DAVISVP2,2013-06-24 07:25:00,
2013-06-24 03:30:00,72.2,67.1,29.88,NE,51,3.0,8.0,84,0.00,,,0.00,WUHU216DAVISVP2,2013-06-24 07:30:00,
2013-06-24 03:36:00,72.1,67.0,29.88,East,94,3.0,8.0,84,0.00,,,0.00,WUHU216DAVISVP2,2013-06-24 07:36:00,
2013-06-24 03:41:00,72.1,67.4,29.88,ESE,108,2.0,8.0,85,0.00,,,0.00,WUHU216DAVISVP2,2013-06-24 07:41:00,
2013-06-24 03:46:00,71.9,67.2,29.88,East,96,2.0,9.0,85,0.00,,,0.00,WUHU216DAVISVP2,2013-06-24 07:46:00,
2013-06-24 03:51:00,71.8,67.1,29.88,East,87,1.0,9.0,85,0.00,,,0.00,WUHU216DAVISVP2,2013-06-24 07:51:00,
2013-06-24 03:56:00,71.7,67.0,29.88,NE,51,2.0,8.0,85,0.00,,,0.00,WUHU216DAVISVP2,2013-06-24 07:56:00,
2013-06-24 04:01:00,71.5,67.1,29.88,NE,51,0.0,6.0,86,0.00,,,0.00,WUHU216DAVISVP2,2013-06-24 08:01:00,
2013-06-24 04:06:00,71.4,67.0,29.88,NNE,33,0.0,4.0,86,0.00,,,0.00,WUHU216DAVISVP2,2013-06-24 08:06:00,
2013-06-24 04:11:00,71.2,66.8,29.87,NE,34,0.0,4.0,86,0.00,,,0.00,WUHU216DAVISVP2,2013-06-24 08:11:00,
2013-06-24 04:16:00,71.0,66.9,29.88,NNE,30,2.0,3.0,87,0.00,,,0.00,WUHU216DAVISVP2,2013-06-24 08:16:00,
2013-06-24 04:22:00,70.9,66.8,29.88,North,356,1.0,3.0,87,0.00,,,0.00,WUHU216DAVISVP2,2013-06-24 08:22:00,
2013-06-24 04:26:00,70.7,67.0,29.88,NNE,15,0.0,3.0,88,0.00,,,0.00,WUHU216DAVISVP2,2013-06-24 08:26:00,
2013-06-24 04:31:00,70.5,66.8,29.88,NNE,17,0.0,3.0,88,0.00,,,0.00,WUHU216DAVISVP2,2013-06-24 08:31:00,
2013-06-24 04:37:00,70.3,66.6,29.88,NNE,29,1.0,3.0,88,0.00,,,0.00,WUHU216DAVISVP2,2013-06-24 08:37:00,
2013-06-24 04:42:00,70.3,66.9,29.88,North,354,1.0,3.0,89,0.00,,,0.00,WUHU216DAVISVP2,2013-06-24 08:42:00,
2013-06-24 04:47:00,70.2,66.8,29.88,NNE,20,0.0,3.0,89,0.00,,,0.00,WUHU216DAVISVP2,2013-06-24 08:47:00,
2013-06-24 04:52:00,70.1,66.7,29.88,NNE,13,1.0,3.0,89,0.00,,,0.00,WUHU216DAVISVP2,2013-06-24 08:52:00,
2013-06-24 04:57:00,70.1,66.7,29.87,NNW,328,0.0,3.0,89,0.00,,,0.00,WUHU216DAVISVP2,2013-06-24 08:57:00,
2013-06-24 05:02:00,70.0,66.6,29.88,NNE,32,2.0,2.0,89,0.00,,,0.00,WUHU216DAVISVP2,2013-06-24 09:02:00,
2013-06-24 05:08:00,69.9,66.5,29.87,NE,40,2.0,3.0,89,0.00,,,0.00,WUHU216DAVISVP2,2013-06-24 09:08:00,
2013-06-24 05:13:00,69.9,66.5,29.87,NNE,32,2.0,4.0,89,0.00,,,0.00,WUHU216DAVISVP2,2013-06-24 09:13:00,
2013-06-24 05:18:00,69.8,66.4,29.88,NNW,345,1.0,4.0,89,0.00,,,0.00,WUHU216DAVISVP2,2013-06-24 09:18:00,
2013-06-24 05:23:00,69.7,66.6,29.88,North,360,2.0,5.0,90,0.00,,,0.00,WUHU216DAVISVP2,2013-06-24 09:23:00,
2013-06-24 05:28:00,69.7,66.6,29.88,NNE,25,4.0,5.0,90,0.00,,,0.00,WUHU216DAVISVP2,2013-06-24 09:28:00,
2013-06-24 05:34:00,69.6,66.5,29.88,NNW,341,2.0,4.0,90,0.00,,,0.00,WUHU216DAVISVP2,2013-06-24 09:34:00,
2013-06-24 05:39:00,69.5,66.4,29.88,North,4,0.0,4.0,90,0.00,,,0.00,WUHU216DAVISVP2,2013-06-24 09:39:00,
2013-06-24 05:44:00,69.3,66.2,29.88,NNE,18,2.0,4.0,90,0.00,,,0.00,WUHU216DAVISVP2,2013-06-24 09:44:00,
2013-06-24 05:50:00,69.1,66.4,29.87,NNE,15,3.0,3.0,91,0.00,,,0.00,WUHU216DAVISVP2,2013-06-24 09:50:00,
2013-06-24 05:55:00,69.1,66.3,29.88,ENE,69,4.0,5.0,91,0.00,,,0.00,WUHU216DAVISVP2,2013-06-24 09:55:00,
2013-06-24 06:00:00,69.2,66.4,29.88,NNE,30,0.0,5.0,91,0.00,,,0.00,WUHU216DAVISVP2,2013-06-24 10:00:00,
2013-06-24 06:05:00,69.1,66.3,29.88,NNE,25,3.0,4.0,91,0.00,,,0.00,WUHU216DAVISVP2,2013-06-24 10:05:00,
2013-06-24 06:10:00,69.2,66.4,29.88,NNE,15,0.0,4.0,91,0.00,,,0.00,WUHU216DAVISVP2,2013-06-24 10:10:00,
2013-06-24 06:15:00,69.1,66.3,29.88,NNE,17,0.0,4.0,91,0.00,,,0.00,WUHU216DAVISVP2,2013-06-24 10:15:00,
2013-06-24 06:20:00,69.1,66.3,29.88,NE,53,1.0,4.0,91,0.00,,,0.00,WUHU216DAVISVP2,2013-06-24 10:20:00,
2013-06-24 06:26:00,69.2,66.4,29.88,NNE,26,2.0,4.0,91,0.00,,,0.00,WUHU216DAVISVP2,2013-06-24 10:26:00,
2013-06-24 06:31:00,69.2,66.5,29.88,NE,51,1.0,4.0,91,0.00,,,0.00,WUHU216DAVISVP2,2013-06-24 10:31:00,
2013-06-24 06:36:00,69.3,66.5,29.88,NNE,32,0.0,3.0,91,0.00,,,0.00,WUHU216DAVISVP2,2013-06-24 10:36:00,
2013-06-24 06:41:00,69.3,66.2,29.89,NNE,22,0.0,3.0,90,0.00,,,0.00,WUHU216DAVISVP2,2013-06-24 10:41:00,
2013-06-24 06:46:00,69.3,66.2,29.89,NNE,28,0.0,2.0,90,0.00,,,0.00,WUHU216DAVISVP2,2013-06-24 10:46:00,
2013-06-24 06:51:00,69.3,66.5,29.89,NE,42,0.0,2.0,91,0.00,,,0.00,WUHU216DAVISVP2,2013-06-24 10:51:00,
2013-06-24 06:56:00,69.3,66.5,29.89,NE,42,0.0,1.0,91,0.00,,,0.00,WUHU216DAVISVP2,2013-06-24 10:56:00,
2013-06-24 07:02:00,69.4,66.6,29.89,NNW,342,2.0,3.0,91,0.00,,,0.00,WUHU216DAVISVP2,2013-06-24 11:02:00,
2013-06-24 07:07:00,69.5,66.4,29.89,NE,51,1.0,4.0,90,0.00,,,0.00,WUHU216DAVISVP2,2013-06-24 11:07:00,
2013-06-24 07:12:00,69.7,66.6,29.89,NNE,25,1.0,5.0,90,0.00,,,0.00,WUHU216DAVISVP2,2013-06-24 11:12:00,
2013-06-24 07:17:00,69.9,66.8,29.89,WNW,296,1.0,5.0,90,0.00,,,0.00,WUHU216DAVISVP2,2013-06-24 11:17:00,
2013-06-24 07:22:00,70.2,66.8,29.89,NE,47,3.0,6.0,89,0.00,,,0.00,WUHU216DAVISVP2,2013-06-24 11:22:00,
2013-06-24 07:27:00,70.4,67.0,29.89,East,82,0.0,6.0,89,0.00,,,0.00,WUHU216DAVISVP2,2013-06-24 11:27:00,
2013-06-24 07:32:00,70.5,67.1,29.89,NNW,338,2.0,6.0,89,0.00,,,0.00,WUHU216DAVISVP2,2013-06-24 11:32:00,
2013-06-24 07:37:00,70.7,67.3,29.89,NNE,12,1.0,6.0,89,0.00,,,0.00,WUHU216DAVISVP2,2013-06-24 11:37:00,
2013-06-24 07:42:00,70.7,67.0,29.89,NE,36,3.0,7.0,88,0.00,,,0.00,WUHU216DAVISVP2,2013-06-24 11:42:00,
2013-06-24 07:48:00,70.8,67.1,29.89,NNW,345,3.0,7.0,88,0.00,,,0.00,WUHU216DAVISVP2,2013-06-24 11:48:00,
2013-06-24 07:53:00,71.1,67.4,29.89,NNE,29,5.0,7.0,88,0.00,,,0.00,WUHU216DAVISVP2,2013-06-24 11:53:00,
2013-06-24 07:58:00,71.4,67.7,29.89,NW,314,4.0,7.0,88,0.00,,,0.00,WUHU216DAVISVP2,2013-06-24 11:58:00,
2013-06-24 08:03:00,71.6,67.9,29.89,ENE,77,1.0,7.0,88,0.00,,,0.00,WUHU216DAVISVP2,2013-06-24 12:03:00,
2013-06-24 08:08:00,71.8,67.7,29.89,ESE,114,1.0,7.0,87,0.00,,,0.00,WUHU216DAVISVP2,2013-06-24 12:08:00,
2013-06-24 08:13:00,71.9,67.8,29.89,NE,41,5.0,11.0,87,0.00,,,0.00,WUHU216DAVISVP2,2013-06-24 12:13:00,
2013-06-24 08:18:00,71.9,67.8,29.90,ENE,61,4.0,11.0,87,0.00,,,0.00,WUHU216DAVISVP2,2013-06-24 12:18:00,
2013-06-24 08:23:00,71.9,67.8,29.90,NNE,16,4.0,12.0,87,0.00,,,0.00,WUHU216DAVISVP2,2013-06-24 12:23:00,
2013-06-24 08:28:00,71.9,67.8,29.90,East,88,4.0,12.0,87,0.00,,,0.00,WUHU216DAVISVP2,2013-06-24 12:28:00,
2013-06-24 08:33:00,71.8,68.1,29.90,East,91,4.0,11.0,88,0.00,,,0.00,WUHU216DAVISVP2,2013-06-24 12:33:00,
2013-06-24 08:38:00,71.8,68.1,29.91,ESE,103,6.0,11.0,88,0.00,,,0.00,WUHU216DAVISVP2,2013-06-24 12:38:00,
2013-06-24 08:43:00,71.6,67.9,29.90,ENE,63,9.0,11.0,88,0.00,,,0.00,WUHU216DAVISVP2,2013-06-24 12:43:00,
2013-06-24 08:49:00,71.6,67.9,29.91,NE,49,6.0,13.0,88,0.00,,,0.00,WUHU216DAVISVP2,2013-06-24 12:49:00,
2013-06-24 08:54:00,71.6,67.9,29.91,East,92,3.0,13.0,88,0.00,,,0.00,WUHU216DAVISVP2,2013-06-24 12:54:00,
2013-06-24 08:59:00,71.6,68.2,29.91,ENE,67,8.0,13.0,89,0.00,,,0.00,WUHU216DAVISVP2,2013-06-24 12:59:00,
2013-06-24 09:04:00,71.6,68.2,29.91,North,6,3.0,13.0,89,0.00,,,0.00,WUHU216DAVISVP2,2013-06-24 13:04:00,
2013-06-24 09:10:00,72.0,68.6,29.91,East,83,3.0,12.0,89,0.00,,,0.00,WUHU216DAVISVP2,2013-06-24 13:10:00,
2013-06-24 09:15:00,72.5,68.7,29.90,NE,38,1.0,11.0,88,0.00,,,0.00,WUHU216DAVISVP2,2013-06-24 13:15:00,
2013-06-24 09:20:00,72.6,68.8,29.90,NNW,335,4.0,11.0,88,0.00,,,0.00,WUHU216DAVISVP2,2013-06-24 13:20:00,
2013-06-24 09:25:00,72.8,68.7,29.90,NE,48,4.0,11.0,87,0.00,,,0.00,WUHU216DAVISVP2,2013-06-24 13:25:00,
2013-06-24 09:30:00,72.9,68.8,29.91,NE,46,5.0,13.0,87,0.00,,,0.00,WUHU216DAVISVP2,2013-06-24 13:30:00,
2013-06-24 09:35:00,72.9,69.1,29.91,North,9,1.0,13.0,88,0.00,,,0.00,WUHU216DAVISVP2,2013-06-24 13:35:00,
2013-06-24 09:40:00,72.9,69.1,29.91,NNE,32,6.0,12.0,88,0.00,,,0.00,WUHU216DAVISVP2,2013-06-24 13:40:00,
2013-06-24 09:45:00,73.1,69.3,29.91,NE,50,2.0,12.0,88,0.00,,,0.00,WUHU216DAVISVP2,2013-06-24 13:45:00,
2013-06-24 09:51:00,73.1,69.0,29.91,NW,316,1.0,11.0,87,0.00,,,0.00,WUHU216DAVISVP2,2013-06-24 13:51:00,
2013-06-24 09:56:00,73.5,69.4,29.91,East,82,7.0,12.0,87,0.00,,,0.00,WUHU216DAVISVP2,2013-06-24 13:56:00,
2013-06-24 10:01:00,73.6,69.5,29.91,East,101,7.0,12.0,87,0.00,,,0.00,WUHU216DAVISVP2,2013-06-24 14:01:00,
2013-06-24 10:06:00,74.1,69.7,29.91,East,81,5.0,11.0,86,0.00,,,0.00,WUHU216DAVISVP2,2013-06-24 14:06:00,
2013-06-24 10:11:00,74.6,69.8,29.91,North,4,5.0,11.0,85,0.00,,,0.00,WUHU216DAVISVP2,2013-06-24 14:11:00,
2013-06-24 10:16:00,74.8,69.7,29.91,ENE,57,5.0,10.0,84,0.00,,,0.00,WUHU216DAVISVP2,2013-06-24 14:16:00,
2013-06-24 10:21:00,75.0,69.9,29.91,NNE,28,4.0,10.0,84,0.00,,,0.00,WUHU216DAVISVP2,2013-06-24 14:21:00,
2013-06-24 10:26:00,75.7,70.2,29.91,NE,39,7.0,12.0,83,0.00,,,0.00,WUHU216DAVISVP2,2013-06-24 14:26:00,
2013-06-24 10:32:00,75.8,70.3,29.91,ESE,113,2.0,12.0,83,0.00,,,0.00,WUHU216DAVISVP2,2013-06-24 14:32:00,
2013-06-24 10:37:00,75.7,69.5,29.91,East,82,7.0,13.0,81,0.00,,,0.00,WUHU216DAVISVP2,2013-06-24 14:37:00,
2013-06-24 10:42:00,75.5,69.3,29.91,ESE,116,5.0,13.0,81,0.00,,,0.00,WUHU216DAVISVP2,2013-06-24 14:42:00,
2013-06-24 10:47:00,75.7,69.9,29.91,ENE,72,5.0,12.0,82,0.00,,,0.00,WUHU216DAVISVP2,2013-06-24 14:47:00,
2013-06-24 10:52:00,76.0,70.1,29.91,NE,50,4.0,12.0,82,0.00,,,0.00,WUHU216DAVISVP2,2013-06-24 14:52:00,
2013-06-24 10:58:00,76.6,70.3,29.91,SE,135,2.0,13.0,81,0.00,,,0.00,WUHU216DAVISVP2,2013-06-24 14:58:00,
2013-06-24 11:03:00,77.1,69.7,29.91,ESE,103,4.0,13.0,78,0.00,,,0.00,WUHU216DAVISVP2,2013-06-24 15:03:00,
2013-06-24 11:08:00,76.8,69.0,29.92,ENE,72,9.0,14.0,77,0.00,,,0.00,WUHU216DAVISVP2,2013-06-24 15:08:00,
2013-06-24 11:13:00,76.7,69.7,29.91,East,84,7.0,14.0,79,0.00,,,0.00,WUHU216DAVISVP2,2013-06-24 15:13:00,
2013-06-24 11:18:00,76.9,69.6,29.91,East,98,12.0,14.0,78,0.00,,,0.00,WUHU216DAVISVP2,2013-06-24 15:18:00,
2013-06-24 11:24:00,77.2,70.2,29.91,ESE,103,7.0,13.0,79,0.00,,,0.00,WUHU216DAVISVP2,2013-06-24 15:24:00,
2013-06-24 11:29:00,77.4,69.6,29.91,NE,49,3.0,14.0,77,0.00,,,0.00,WUHU216DAVISVP2,2013-06-24 15:29:00,
2013-06-24 11:34:00,77.6,69.8,29.91,ESE,112,9.0,15.0,77,0.00,,,0.00,WUHU216DAVISVP2,2013-06-24 15:34:00,
2013-06-24 11:39:00,77.4,69.8,29.91,NE,41,8.0,15.0,77,0.00,,,0.00,WUHU216DAVISVP2,2013-06-24 15:39:00,
2013-06-24 11:44:00,77.6,70.6,29.91,ENE,59,12.0,17.0,79,0.00,,,0.00,WUHU216DAVISVP2,2013-06-24 15:44:00,
2013-06-24 11:49:00,77.6,70.0,29.91,NE,54,6.0,17.0,77,0.00,,,0.00,WUHU216DAVISVP2,2013-06-24 15:49:00,
2013-06-24 11:54:00,77.0,69.6,29.91,East,84,9.0,16.0,78,0.00,,,0.00,WUHU216DAVISVP2,2013-06-24 15:54:00,
2013-06-24 11:59:00,76.8,69.5,29.91,ENE,73,11.0,17.0,78,0.00,,,0.00,WUHU216DAVISVP2,2013-06-24 15:59:00,
2013-06-24 12:04:00,77.3,69.3,29.91,ENE,61,4.0,17.0,76,0.00,,,0.00,WUHU216DAVISVP2,2013-06-24 16:04:00,
2013-06-24 12:09:00,77.6,69.6,29.91,ENE,78,6.0,17.0,76,0.00,,,0.00,WUHU216DAVISVP2,2013-06-24 16:09:00,
2013-06-24 12:14:00,77.6,69.2,29.91,ENE,72,5.0,17.0,75,0.00,,,0.00,WUHU216DAVISVP2,2013-06-24 16:14:00,
2013-06-24 12:19:00,77.6,70.0,29.91,ENE,62,8.0,15.0,77,0.00,,,0.00,WUHU216DAVISVP2,2013-06-24 16:19:00,
2013-06-24 12:24:00,77.6,69.4,29.91,East,93,9.0,15.0,76,0.00,,,0.00,WUHU216DAVISVP2,2013-06-24 16:24:00,
2013-06-24 12:29:00,77.3,69.7,29.91,East,82,9.0,18.0,77,0.00,,,0.00,WUHU216DAVISVP2,2013-06-24 16:29:00,
2013-06-24 12:35:00,77.5,69.9,29.91,East,90,6.0,18.0,77,0.00,,,0.00,WUHU216DAVISVP2,2013-06-24 16:35:00,
2013-06-24 12:40:00,77.6,70.0,29.91,East,84,2.0,16.0,77,0.00,,,0.00,WUHU216DAVISVP2,2013-06-24 16:40:00,
2013-06-24 12:45:00,77.4,69.4,29.91,ENE,66,7.0,16.0,76,0.00,,,0.00,WUHU216DAVISVP2,2013-06-24 16:45:00,
2013-06-24 12:50:00,77.0,69.2,29.91,ENE,72,5.0,15.0,77,0.00,,,0.00,WUHU216DAVISVP2,2013-06-24 16:50:00,
2013-06-24 12:55:00,76.9,69.1,29.91,East,84,8.0,15.0,77,0.00,,,0.00,WUHU216DAVISVP2,2013-06-24 16:55:00,
2013-06-24 13:00:00,77.4,70.1,29.91,ESE,121,5.0,15.0,78,0.00,,,0.00,WUHU216DAVISVP2,2013-06-24 17:00:00,
2013-06-24 13:05:00,78.3,69.7,29.90,NE,56,4.0,15.0,75,0.00,,,0.00,WUHU216DAVISVP2,2013-06-24 17:05:00,
2013-06-24 13:10:00,78.6,69.4,29.90,NNE,25,9.0,15.0,73,0.00,,,0.00,WUHU216DAVISVP2,2013-06-24 17:10:00,
2013-06-24 13:15:00,79.0,69.4,29.90,ENE,64,9.0,14.0,72,0.00,,,0.00,WUHU216DAVISVP2,2013-06-24 17:15:00,
2013-06-24 13:20:00,79.0,69.2,29.90,East,96,7.0,14.0,72,0.00,,,0.00,WUHU216DAVISVP2,2013-06-24 17:20:00,
2013-06-24 13:26:00,79.1,69.9,29.90,ENE,61,7.0,15.0,73,0.00,,,0.00,WUHU216DAVISVP2,2013-06-24 17:26:00,
2013-06-24 13:31:00,78.9,68.3,29.90,ENE,75,8.0,15.0,70,0.00,,,0.00,WUHU216DAVISVP2,2013-06-24 17:31:00,
2013-06-24 13:36:00,79.0,68.4,29.90,East,92,8.0,16.0,70,0.00,,,0.00,WUHU216DAVISVP2,2013-06-24 17:36:00,
2013-06-24 13:41:00,79.0,68.0,29.90,East,96,6.0,16.0,69,0.00,,,0.00,WUHU216DAVISVP2,2013-06-24 17:41:00,
2013-06-24 13:46:00,79.1,68.1,29.89,SE,135,9.0,16.0,69,0.00,,,0.00,WUHU216DAVISVP2,2013-06-24 17:46:00,
2013-06-24 13:51:00,79.0,68.6,29.89,SSE,148,4.0,14.0,70,0.00,,,0.00,WUHU216DAVISVP2,2013-06-24 17:51:00,
2013-06-24 13:56:00,78.9,67.7,29.89,East,96,13.0,18.0,68,0.00,,,0.00,WUHU216DAVISVP2,2013-06-24 17:56:00,
2013-06-24 14:01:00,79.2,68.4,29.89,East,94,11.0,18.0,69,0.00,,,0.00,WUHU216DAVISVP2,2013-06-24 18:01:00,
2013-06-24 14:06:00,79.0,68.2,29.88,ESE,113,10.0,18.0,69,0.00,,,0.00,WUHU216DAVISVP2,2013-06-24 18:06:00,
2013-06-24 14:11:00,79.1,68.7,29.88,East,92,8.0,17.0,70,0.00,,,0.00,WUHU216DAVISVP2,2013-06-24 18:11:00,
2013-06-24 14:16:00,79.6,69.6,29.88,ESE,108,3.0,16.0,71,0.00,,,0.00,WUHU216DAVISVP2,2013-06-24 18:16:00,
2013-06-24 14:21:00,80.1,69.0,29.88,East,92,3.0,15.0,69,0.00,,,0.00,WUHU216DAVISVP2,2013-06-24 18:21:00,
2013-06-24 14:26:00,79.9,69.0,29.87,East,84,8.0,15.0,69,0.00,,,0.00,WUHU216DAVISVP2,2013-06-24 18:26:00,
2013-06-24 14:32:00,80.1,69.2,29.87,ENE,71,6.0,14.0,69,0.00,,,0.00,WUHU216DAVISVP2,2013-06-24 18:32:00,
2013-06-24 14:37:00,80.3,69.4,29.86,East,88,6.0,14.0,69,0.00,,,0.00,WUHU216DAVISVP2,2013-06-24 18:37:00,
2013-06-24 14:42:00,81.0,69.7,29.86,ENE,70,5.0,12.0,68,0.00,,,0.00,WUHU216DAVISVP2,2013-06-24 18:42:00,
2013-06-24 14:48:00,80.7,69.0,29.86,ENE,70,4.0,10.0,67,0.00,,,0.00,WUHU216DAVISVP2,2013-06-24 18:48:00,
2013-06-24 14:53:00,80.7,69.0,29.86,East,97,11.0,13.0,67,0.00,,,0.00,WUHU216DAVISVP2,2013-06-24 18:53:00,
2013-06-24 14:58:00,80.7,69.4,29.85,East,92,4.0,13.0,68,0.00,,,0.00,WUHU216DAVISVP2,2013-06-24 18:58:00,
2013-06-24 15:03:00,81.1,69.8,29.85,SE,138,5.0,11.0,68,0.00,,,0.00,WUHU216DAVISVP2,2013-06-24 19:03:00,
2013-06-24 15:08:00,81.1,69.3,29.84,ESE,105,6.0,11.0,67,0.00,,,0.00,WUHU216DAVISVP2,2013-06-24 19:08:00,
2013-06-24 15:13:00,81.5,68.9,29.84,SE,128,5.0,10.0,65,0.00,,,0.00,WUHU216DAVISVP2,2013-06-24 19:13:00,
2013-06-24 15:18:00,81.6,67.8,29.84,East,94,3.0,10.0,63,0.00,,,0.00,WUHU216DAVISVP2,2013-06-24 19:18:00,
2013-06-24 15:23:00,82.0,67.2,29.84,SE,134,4.0,12.0,61,0.00,,,0.00,WUHU216DAVISVP2,2013-06-24 19:23:00,
2013-06-24 15:28:00,81.8,66.8,29.85,SE,131,8.0,12.0,60,0.00,,,0.00,WUHU216DAVISVP2,2013-06-24 19:28:00,
2013-06-24 15:34:00,81.9,67.9,29.85,ESE,122,4.0,12.0,62,0.00,,,0.00,WUHU216DAVISVP2,2013-06-24 19:34:00,
2013-06-24 15:39:00,82.1,67.6,29.84,SE,128,4.0,12.0,61,0.00,,,0.00,WUHU216DAVISVP2,2013-06-24 19:39:00,
2013-06-24 15:44:00,82.0,68.4,29.84,SE,129,6.0,11.0,63,0.00,,,0.00,WUHU216DAVISVP2,2013-06-24 19:44:00,
2013-06-24 15:49:00,82.0,67.5,29.83,ESE,117,6.0,10.0,61,0.00,,,0.00,WUHU216DAVISVP2,2013-06-24 19:49:00,
2013-06-24 15:54:00,82.4,67.9,29.83,SSE,150,5.0,9.0,61,0.00,,,0.00,WUHU216DAVISVP2,2013-06-24 19:54:00,
2013-06-24 15:59:00,82.3,68.2,29.83,ENE,67,3.0,10.0,62,0.00,,,0.00,WUHU216DAVISVP2,2013-06-24 19:59:00,
2013-06-24 16:04:00,82.2,66.7,29.83,NE,37,3.0,10.0,59,0.00,,,0.00,WUHU216DAVISVP2,2013-06-24 20:04:00,
2013-06-24 16:09:00,82.4,67.9,29.84,East,96,4.0,11.0,61,0.00,,,0.00,WUHU216DAVISVP2,2013-06-24 20:09:00,
2013-06-24 16:14:00,82.6,68.0,29.84,SE,136,2.0,11.0,61,0.00,,,0.00,WUHU216DAVISVP2,2013-06-24 20:14:00,
2013-06-24 16:19:00,82.9,68.8,29.83,SE,124,5.0,10.0,62,0.00,,,0.00,WUHU216DAVISVP2,2013-06-24 20:19:00,
2013-06-24 16:24:00,82.7,68.6,29.84,East,92,6.0,12.0,62,0.00,,,0.00,WUHU216DAVISVP2,2013-06-24 20:24:00,
2013-06-24 16:30:00,82.5,67.9,29.83,ENE,77,4.0,12.0,61,0.00,,,0.00,WUHU216DAVISVP2,2013-06-24 20:30:00,
2013-06-24 16:35:00,82.5,69.4,29.83,North,352,3.0,11.0,64,0.00,,,0.00,WUHU216DAVISVP2,2013-06-24 20:35:00,
2013-06-24 16:40:00,83.1,67.0,29.83,NE,54,5.0,11.0,58,0.00,,,0.00,WUHU216DAVISVP2,2013-06-24 20:40:00,
2013-06-24 16:45:00,82.7,65.6,29.83,NNE,22,7.0,12.0,56,0.00,,,0.00,WUHU216DAVISVP2,2013-06-24 20:45:00,
2013-06-24 16:50:00,82.6,66.1,29.83,ESE,117,5.0,12.0,57,0.00,,,0.00,WUHU216DAVISVP2,2013-06-24 20:50:00,
2013-06-24 16:55:00,82.6,66.1,29.83,East,82,9.0,14.0,57,0.00,,,0.00,WUHU216DAVISVP2,2013-06-24 20:55:00,
2013-06-24 17:00:00,82.1,66.1,29.83,NE,38,6.0,14.0,58,0.00,,,0.00,WUHU216DAVISVP2,2013-06-24 21:00:00,
2013-06-24 17:05:00,81.9,66.2,29.83,East,79,7.0,13.0,59,0.00,,,0.00,WUHU216DAVISVP2,2013-06-24 21:05:00,
2013-06-24 17:10:00,81.9,66.4,29.83,NE,44,6.0,12.0,59,0.00,,,0.00,WUHU216DAVISVP2,2013-06-24 21:10:00,
2013-06-24 17:15:00,81.9,66.6,29.82,East,79,4.0,12.0,60,0.00,,,0.00,WUHU216DAVISVP2,2013-06-24 21:15:00,
2013-06-24 17:20:00,81.2,66.2,29.82,East,94,4.0,12.0,60,0.00,,,0.00,WUHU216DAVISVP2,2013-06-24 21:20:00,
2013-06-24 17:25:00,80.8,66.6,29.83,East,96,4.0,11.0,62,0.00,,,0.00,WUHU216DAVISVP2,2013-06-24 21:25:00,
2013-06-24 17:31:00,80.5,66.7,29.83,East,92,7.0,12.0,63,0.00,,,0.00,WUHU216DAVISVP2,2013-06-24 21:31:00,
2013-06-24 17:36:00,80.2,66.7,29.83,NE,47,4.0,12.0,63,0.00,,,0.00,WUHU216DAVISVP2,2013-06-24 21:36:00,
2013-06-24 17:41:00,80.3,68.1,29.83,East,85,2.0,11.0,66,0.00,,,0.00,WUHU216DAVISVP2,2013-06-24 21:41:00,
2013-06-24 17:46:00,80.5,67.4,29.83,ENE,60,1.0,12.0,64,0.00,,,0.00,WUHU216DAVISVP2,2013-06-24 21:46:00,
2013-06-24 17:51:00,80.3,68.1,29.83,ENE,77,7.0,12.0,66,0.00,,,0.00,WUHU216DAVISVP2,2013-06-24 21:51:00,
2013-06-24 17:56:00,79.9,67.8,29.83,ENE,73,3.0,11.0,66,0.00,,,0.00,WUHU216DAVISVP2,2013-06-24 21:56:00,
2013-06-24 18:01:00,80.1,68.4,29.83,East,91,4.0,11.0,67,0.00,,,0.00,WUHU216DAVISVP2,2013-06-24 22:01:00,
2013-06-24 18:06:00,80.7,68.5,29.83,East,92,5.0,10.0,66,0.00,,,0.00,WUHU216DAVISVP2,2013-06-24 22:06:00,
2013-06-24 18:11:00,80.8,67.3,29.83,East,87,5.0,13.0,63,0.00,,,0.00,WUHU216DAVISVP2,2013-06-24 22:11:00,
2013-06-24 18:16:00,80.4,65.5,29.83,East,94,8.0,15.0,60,0.00,,,0.00,WUHU216DAVISVP2,2013-06-24 22:16:00,
2013-06-24 18:21:00,79.9,65.2,29.83,East,96,5.0,15.0,61,0.00,,,0.00,WUHU216DAVISVP2,2013-06-24 22:21:00,
2013-06-24 18:26:00,79.4,64.5,29.83,East,82,6.0,13.0,60,0.00,,,0.00,WUHU216DAVISVP2,2013-06-24 22:26:00,
2013-06-24 18:31:00,79.0,64.2,29.83,East,80,10.0,15.0,60,0.00,,,0.00,WUHU216DAVISVP2,2013-06-24 22:31:00,
2013-06-24 18:36:00,78.7,64.8,29.84,ESE,113,5.0,15.0,62,0.00,,,0.00,WUHU216DAVISVP2,2013-06-24 22:36:00,
2013-06-24 18:42:00,78.6,64.9,29.83,ESE,113,3.0,15.0,63,0.00,,,0.00,WUHU216DAVISVP2,2013-06-24 22:42:00,
2013-06-24 18:47:00,79.1,65.4,29.83,East,92,2.0,14.0,63,0.00,,,0.00,WUHU216DAVISVP2,2013-06-24 22:47:00,
2013-06-24 18:52:00,79.1,64.7,29.83,ESE,110,8.0,14.0,61,0.00,,,0.00,WUHU216DAVISVP2,2013-06-24 22:52:00,
2013-06-24 18:57:00,78.9,65.0,29.83,East,101,4.0,14.0,62,0.00,,,0.00,WUHU216DAVISVP2,2013-06-24 22:57:00,
2013-06-24 19:02:00,78.8,64.7,29.82,ESE,104,5.0,12.0,62,0.00,,,0.00,WUHU216DAVISVP2,2013-06-24 23:02:00,
2013-06-24 19:07:00,78.6,65.2,29.82,ESE,110,2.0,12.0,63,0.00,,,0.00,WUHU216DAVISVP2,2013-06-24 23:07:00,
2013-06-24 19:12:00,78.6,65.6,29.82,ESE,102,3.0,10.0,64,0.00,,,0.00,WUHU216DAVISVP2,2013-06-24 23:12:00,
2013-06-24 19:17:00,78.4,65.4,29.83,ESE,110,5.0,9.0,64,0.00,,,0.00,WUHU216DAVISVP2,2013-06-24 23:17:00,
2013-06-24 19:22:00,78.3,65.4,29.82,ENE,63,3.0,11.0,64,0.00,,,0.00,WUHU216DAVISVP2,2013-06-24 23:22:00,
2013-06-24 19:27:00,78.1,65.2,29.82,East,98,9.0,11.0,64,0.00,,,0.00,WUHU216DAVISVP2,2013-06-24 23:27:00,
2013-06-24 19:33:00,77.8,65.1,29.82,ENE,71,10.0,15.0,65,0.00,,,0.00,WUHU216DAVISVP2,2013-06-24 23:33:00,
2013-06-24 19:38:00,77.7,65.2,29.82,East,91,6.0,15.0,65,0.00,,,0.00,WUHU216DAVISVP2,2013-06-24 23:38:00,
2013-06-24 19:43:00,77.7,65.7,29.82,ENE,68,3.0,14.0,66,0.00,,,0.00,WUHU216DAVISVP2,2013-06-24 23:43:00,
2013-06-24 19:49:00,77.8,65.3,29.82,NE,51,5.0,12.0,65,0.00,,,0.00,WUHU216DAVISVP2,2013-06-24 23:49:00,
2013-06-24 19:54:00,77.7,65.7,29.82,ENE,57,5.0,12.0,66,0.00,,,0.00,WUHU216DAVISVP2,2013-06-24 23:54:00,
2013-06-24 19:59:00,77.4,65.8,29.82,East,81,2.0,8.0,67,0.00,,,0.00,WUHU216DAVISVP2,2013-06-24 23:59:00,
2013-06-24 20:04:00,77.1,65.9,29.82,NE,52,1.0,8.0,68,0.00,,,0.00,WUHU216DAVISVP2,2013-06-25 00:04:00,
2013-06-24 20:09:00,76.7,66.0,29.82,ENE,69,7.0,7.0,69,0.00,,,0.00,WUHU216DAVISVP2,2013-06-25 00:09:00,
2013-06-24 20:14:00,76.5,65.8,29.82,ESE,113,1.0,7.0,69,0.00,,,0.00,WUHU216DAVISVP2,2013-06-25 00:14:00,
2013-06-24 20:19:00,76.3,65.8,29.81,ENE,65,1.0,7.0,70,0.00,,,0.00,WUHU216DAVISVP2,2013-06-25 00:19:00,
2013-06-24 20:25:00,76.2,66.1,29.81,ENE,63,0.0,6.0,71,0.00,,,0.00,WUHU216DAVISVP2,2013-06-25 00:25:00,
2013-06-24 20:30:00,76.0,66.1,29.81,ENE,77,0.0,4.0,71,0.00,,,0.00,WUHU216DAVISVP2,2013-06-25 00:30:00,
2013-06-24 20:35:00,75.9,66.0,29.81,East,83,1.0,3.0,71,0.00,,,0.00,WUHU216DAVISVP2,2013-06-25 00:35:00,
2013-06-24 20:40:00,75.8,66.3,29.80,East,79,0.0,2.0,72,0.00,,,0.00,WUHU216DAVISVP2,2013-06-25 00:40:00,
2013-06-24 20:45:00,75.7,66.2,29.80,East,79,0.0,2.0,72,0.00,,,0.00,WUHU216DAVISVP2,2013-06-25 00:45:00,
2013-06-24 20:50:00,75.6,66.1,29.80,East,79,0.0,2.0,72,0.00,,,0.00,WUHU216DAVISVP2,2013-06-25 00:50:00,
2013-06-24 20:55:00,75.5,66.4,29.79,East,79,0.0,0.0,73,0.00,,,0.00,WUHU216DAVISVP2,2013-06-25 00:55:00,
2013-06-24 21:00:00,75.3,66.4,29.79,East,79,0.0,1.0,74,0.00,,,0.00,WUHU216DAVISVP2,2013-06-25 01:00:00,
2013-06-24 21:05:00,75.1,66.2,29.79,East,79,0.0,1.0,74,0.00,,,0.00,WUHU216DAVISVP2,2013-06-25 01:05:00,
2013-06-24 21:10:00,74.9,66.4,29.78,ENE,78,0.0,1.0,75,0.00,,,0.00,WUHU216DAVISVP2,2013-06-25 01:10:00,
2013-06-24 21:16:00,74.6,66.7,29.78,ENE,78,0.0,1.0,76,0.00,,,0.00,WUHU216DAVISVP2,2013-06-25 01:16:00,
2013-06-24 21:21:00,74.2,66.3,29.78,ENE,77,0.0,0.0,76,0.00,,,0.00,WUHU216DAVISVP2,2013-06-25 01:21:00,
2013-06-24 21:26:00,74.0,66.1,29.77,ENE,77,0.0,0.0,76,0.00,,,0.00,WUHU216DAVISVP2,2013-06-25 01:26:00,
2013-06-24 21:31:00,73.5,66.3,29.78,ENE,78,0.0,0.0,78,0.00,,,0.00,WUHU216DAVISVP2,2013-06-25 01:31:00,
2013-06-24 21:36:00,73.2,66.0,29.77,ENE,74,0.0,0.0,78,0.00,,,0.00,WUHU216DAVISVP2,2013-06-25 01:36:00,
2013-06-24 21:41:00,73.1,66.3,29.77,ENE,69,0.0,0.0,79,0.00,,,0.00,WUHU216DAVISVP2,2013-06-25 01:41:00,
2013-06-24 21:47:00,72.8,66.3,29.77,ENE,70,0.0,0.0,80,0.00,,,0.00,WUHU216DAVISVP2,2013-06-25 01:47:00,
2013-06-24 21:52:00,72.2,66.1,29.76,ENE,70,0.0,0.0,81,0.00,,,0.00,WUHU216DAVISVP2,2013-06-25 01:52:00,
2013-06-24 21:57:00,71.9,66.2,29.77,ENE,70,0.0,0.0,82,0.00,,,0.00,WUHU216DAVISVP2,2013-06-25 01:57:00,
2013-06-24 22:02:00,71.6,65.9,29.77,WNW,285,1.0,1.0,82,0.00,,,0.00,WUHU216DAVISVP2,2013-06-25 02:02:00,
2013-06-24 22:07:00,71.8,66.1,29.76,WNW,293,0.0,2.0,82,0.00,,,0.00,WUHU216DAVISVP2,2013-06-25 02:07:00,
2013-06-24 22:12:00,71.9,66.2,29.76,NW,307,0.0,2.0,82,0.00,,,0.00,WUHU216DAVISVP2,2013-06-25 02:12:00,
2013-06-24 22:17:00,71.6,65.8,29.76,WSW,253,1.0,2.0,82,0.00,,,0.00,WUHU216DAVISVP2,2013-06-25 02:17:00,
2013-06-24 22:23:00,71.3,65.9,29.76,WSW,253,0.0,2.0,83,0.00,,,0.00,WUHU216DAVISVP2,2013-06-25 02:23:00,
2013-06-24 22:28:00,71.0,66.0,29.76,NNW,333,2.0,4.0,84,0.00,,,0.00,WUHU216DAVISVP2,2013-06-25 02:28:00,
2013-06-24 22:33:00,70.9,66.2,29.76,WNW,302,0.0,4.0,85,0.00,,,0.00,WUHU216DAVISVP2,2013-06-25 02:33:00,
2013-06-24 22:38:00,70.9,66.5,29.77,NW,304,0.0,5.0,86,0.00,,,0.00,WUHU216DAVISVP2,2013-06-25 02:38:00,
2013-06-24 22:43:00,70.8,66.4,29.77,WNW,295,2.0,5.0,86,0.00,,,0.00,WUHU216DAVISVP2,2013-06-25 02:43:00,
2013-06-24 22:48:00,70.7,66.6,29.76,NW,310,2.0,5.0,87,0.00,,,0.00,WUHU216DAVISVP2,2013-06-25 02:48:00,
2013-06-24 22:53:00,70.6,66.5,29.77,NW,316,4.0,5.0,87,0.00,,,0.00,WUHU216DAVISVP2,2013-06-25 02:53:00,
2013-06-24 22:58:00,70.6,66.5,29.77,WNW,298,2.0,5.0,87,0.00,,,0.00,WUHU216DAVISVP2,2013-06-25 02:58:00,
2013-06-24 23:04:00,70.5,66.8,29.77,WNW,300,1.0,5.0,88,0.00,,,0.00,WUHU216DAVISVP2,2013-06-25 03:04:00,
2013-06-24 23:09:00,70.4,66.7,29.77,West,278,0.0,5.0,88,0.00,,,0.00,WUHU216DAVISVP2,2013-06-25 03:09:00,
2013-06-24 23:14:00,70.2,66.5,29.78,West,278,0.0,4.0,88,0.00,,,0.00,WUHU216DAVISVP2,2013-06-25 03:14:00,
2013-06-24 23:20:00,70.0,66.3,29.78,West,278,0.0,3.0,88,0.00,,,0.00,WUHU216DAVISVP2,2013-06-25 03:20:00,
2013-06-24 23:25:00,69.7,66.3,29.78,West,278,0.0,1.0,89,0.00,,,0.00,WUHU216DAVISVP2,2013-06-25 03:25:00,
2013-06-24 23:30:00,69.6,66.5,29.79,West,278,0.0,1.0,90,0.00,,,0.00,WUHU216DAVISVP2,2013-06-25 03:30:00,
2013-06-24 23:36:00,69.4,66.3,29.79,West,278,0.0,1.0,90,0.00,,,0.00,WUHU216DAVISVP2,2013-06-25 03:36:00,
2013-06-24 23:41:00,69.3,66.5,29.79,West,278,0.0,1.0,91,0.00,,,0.00,WUHU216DAVISVP2,2013-06-25 03:41:00,
2013-06-24 23:46:00,69.2,66.5,29.79,West,278,0.0,1.0,91,0.00,,,0.00,WUHU216DAVISVP2,2013-06-25 03:46:00,
2013-06-24 23:51:00,69.4,66.3,29.81,ENE,71,13.0,17.0,90,0.00,,,0.00,WUHU216DAVISVP2,2013-06-25 03:51:00,
2013-06-24 23:57:00,70.1,65.1,29.81,NE,50,12.0,18.0,84,0.00,,,0.00,WUHU216DAVISVP2,2013-06-25 03:57:00,